START_TIME,STEP,MOV.,H8,t_acc.,H43,t_acc.,M25,t_acc.,H9,t_acc.
1989-08-26T21:00:30.120 ,0,0,0.,12.0,0.,12.0,0.,12.0,0.,12.0
1989-08-26T21:00:42.120 ,0,0,0.,12.0,0.,12.0,0.,12.0,0.,12.0
1989-08-26T21:00:54.120 ,1,0,0.,12.0,0.,12.0,0.,12.0,0.,12.0
1989-08-26T21:01:06.120 ,1,0,0.,12.0,0.,12.0,0.,12.0,0.,12.0
1989-08-26T21:01:18.120 ,1,0,0.,12.0,0.,12.0,0.,12.0,0.,12.0
1989-08-26T21:01:30.120 ,1,0,0.,12.0,0.,12.0,0.,12.0,0.,12.0
1989-08-26T21:01:42.120 ,2,0,0.,12.0,0.,12.0,0.,12.0,0.,12.0
1989-08-26T21:01:54.120 ,2,0,0.,12.0,0.,12.0,0.,12.0,0.,12.0
1989-08-26T21:02:06.120 ,2,0,0.,12.0,0.,12.0,0.,12.0,0.,12.0
1989-08-26T21:02:18.120 ,2,0,0.,12.0,0.,12.0,0.,12.0,0.,12.0
1989-08-26T21:02:30.120 ,3,0,0.,12.0,0.,12.0,0.,12.0,0.,12.0
1989-08-26T21:02:42.120 ,3,0,0.,12.0,0.,12.0,0.,12.0,0.,12.0
1989-08-26T21:02:54.120 ,3,0,0.,12.0,0.,12.0,0.,12.0,0.,12.0
1989-08-26T21:03:06.120 ,3,0,0.,12.0,0.,12.0,0.,12.0,0.,12.0
1989-08-26T21:03:18.120 ,4,0,0.,12.0,0.,12.0,0.,12.0,0.,12.0
1989-08-26T21:03:30.120 ,4,0,0.,12.0,0.,12.0,0.,12.0,0.,12.0
1989-08-26T21:03:42.120 ,4,0,0.,12.0,0.,12.0,0.,12.0,0.,12.0
1989-08-26T21:03:54.120 ,4,0,0.,12.0,0.,12.0,0.,12.0,0.,12.0
1989-08-26T21:04:06.120 ,5,0,0.,12.0,0.,12.0,0.,12.0,0.,12.0
1989-08-26T21:04:18.120 ,5,0,0.,12.0,0.,12.0,0.,12.0,0.,12.0
1989-08-26T21:04:30.120 ,5,0,0.,12.0,0.,12.0,0.,12.0,0.,12.0
1989-08-26T21:04:42.120 ,5,0,0.,12.0,0.,12.0,0.,12.0,0.,12.0
1989-08-26T21:04:54.120 ,6,0,0.,12.0,0.,12.0,0.,12.0,0.,12.0
1989-08-26T21:05:06.120 ,6,0,0.,12.0,0.,12.0,0.,12.0,0.,12.0
1989-08-26T21:05:18.120 ,6,0,0.,12.0,0.,12.0,0.,12.0,0.,12.0
1989-08-26T21:05:30.120 ,6,0,0.,12.0,0.,12.0,0.,12.0,0.,12.0
1989-08-26T21:05:42.120 ,7,0,0.,12.0,0.,12.0,0.,12.0,0.,12.0
1989-08-26T21:05:54.120 ,7,0,0.,12.0,0.,12.0,0.,12.0,0.,12.0
1989-08-26T21:06:06.120 ,7,0,0.,12.0,0.,12.0,0.,12.0,0.,12.0
1989-08-26T21:06:18.120 ,7,0,0.,12.0,0.,12.0,0.,12.0,0.,12.0
1989-08-26T21:06:30.120 ,7,0,0.,12.0,0.,12.0,0.,12.0,0.,12.0
1989-08-26T21:06:42.120 ,7,0,0.,12.0,0.,12.0,0.,12.0,0.,12.0
1989-08-26T21:06:54.120 ,7,0,0.,12.0,0.,12.0,0.,12.0,0.,12.0
1989-08-26T21:07:06.120 ,7,0,0.,12.0,0.,12.0,0.,12.0,0.,12.0
1989-08-26T21:07:18.120 ,6,0,0.,12.0,0.,12.0,0.,12.0,0.,12.0
1989-08-26T21:07:30.120 ,6,0,0.,12.0,0.,12.0,0.,12.0,0.,12.0
1989-08-26T21:07:42.120 ,6,0,0.,12.0,0.,12.0,0.,12.0,0.,12.0
1989-08-26T21:07:54.120 ,6,0,0.,12.0,0.,12.0,0.,12.0,0.,12.0
1989-08-26T21:08:06.120 ,5,0,0.,12.0,0.,12.0,0.,12.0,0.,12.0
1989-08-26T21:08:18.120 ,5,0,0.,12.0,0.,12.0,0.,12.0,0.,12.0
1989-08-26T21:08:30.120 ,5,0,0.,12.0,0.,12.0,0.,12.0,0.,12.0
1989-08-26T21:08:42.120 ,5,0,0.,12.0,0.,12.0,0.,12.0,0.,12.0
1989-08-26T21:08:54.120 ,4,0,0.,12.0,0.,12.0,0.,12.0,0.,12.0
1989-08-26T21:09:06.120 ,4,0,0.,12.0,0.,12.0,0.,12.0,0.,12.0
1989-08-26T21:09:18.120 ,4,0,0.,12.0,0.,12.0,0.,12.0,0.,12.0
1989-08-26T21:09:30.120 ,4,0,0.,12.0,0.,12.0,0.,12.0,0.,12.0
1989-08-26T21:09:42.120 ,3,0,0.,12.0,0.,12.0,0.,12.0,0.,12.0
1989-08-26T21:09:54.120 ,3,0,0.,12.0,0.,12.0,0.,12.0,0.,12.0
1989-08-26T21:10:06.120 ,3,0,0.,12.0,0.,12.0,0.,12.0,0.,12.0
1989-08-26T21:10:18.120 ,3,0,0.,12.0,0.,12.0,0.,12.0,0.,12.0
1989-08-26T21:10:30.120 ,2,0,0.,12.0,0.,12.0,0.,12.0,0.,12.0
1989-08-26T21:10:42.120 ,2,0,0.,12.0,0.,12.0,0.,12.0,0.,12.0
1989-08-26T21:10:54.120 ,2,0,0.,12.0,0.,12.0,0.,12.0,0.,12.0
1989-08-26T21:11:06.120 ,2,0,0.,12.0,0.,12.0,0.,12.0,0.,12.0
1989-08-26T21:11:18.120 ,1,0,0.,12.0,0.,12.0,0.,12.0,0.,12.0
1989-08-26T21:11:30.120 ,1,0,0.,12.0,0.,12.0,0.,12.0,0.,12.0
1989-08-26T21:11:42.120 ,1,0,0.,12.0,0.,12.0,0.,12.0,0.,12.0
1989-08-26T21:11:54.120 ,1,0,0.,12.0,0.,12.0,0.,12.0,0.,12.0
1989-08-26T21:12:06.120 ,0,0,0.,12.0,0.,12.0,0.,12.0,0.,12.0
1989-08-26T21:12:18.120 ,0,0,0.,12.0,0.,12.0,0.,12.0,0.,12.0
1989-08-26T21:12:30.120 ,0,0,0.,12.0,0.,12.0,0.,12.0,0.,12.0
1989-08-26T21:12:42.120 ,0,0,0.,12.0,0.,12.0,0.,12.0,0.,12.0
1989-08-26T21:12:54.120 ,0,0,0.,12.0,0.,12.0,0.,12.0,0.,12.0
1989-08-26T21:13:06.120 ,0,0,0.,12.0,0.,12.0,0.,12.0,0.,12.0
1989-08-26T21:13:18.120 ,0,0,0.,12.0,0.,12.0,0.,12.0,0.,12.0
1989-08-26T21:13:30.120 ,0,0,0.,12.0,0.,12.0,0.,12.0,0.,12.0
1989-08-26T21:13:42.120 ,1,0,0.,12.0,0.,12.0,0.,12.0,0.,12.0
1989-08-26T21:13:54.120 ,1,0,0.,12.0,0.,12.0,0.,12.0,0.,12.0
1989-08-26T21:14:06.120 ,0,0,0.,12.0,0.,12.0,0.,12.0,0.,12.0
1989-08-26T21:14:18.120 ,0,0,0.,12.0,0.,12.0,0.,12.0,0.,12.0
1989-08-26T21:14:48.120 ,0,0,,0,,0,,0,,0
1989-08-26T21:15:00.120 ,0,0,0.,12.0,0.,12.0,0.,12.0,0.,12.0
1989-08-26T21:14:54.120 ,0,0,0.,12.0,0.,12.0,0.,12.0,0.,12.0
1989-08-26T21:15:06.120 ,0,0,0.,12.0,0.,12.0,0.,12.0,0.,12.0
1989-08-26T21:15:18.120 ,3,0,0.,12.0,0.,12.0,0.,12.0,0.,12.0
1989-08-26T21:15:30.120 ,3,0,0.,12.0,0.,12.0,0.,12.0,0.,12.0
1989-08-26T21:15:42.120 ,3,0,0.,12.0,0.,12.0,0.,12.0,0.,12.0
1989-08-26T21:15:54.120 ,3,0,0.,12.0,0.,12.0,0.,12.0,0.,12.0
1989-08-26T21:16:06.120 ,4,0,0.,12.0,0.,12.0,0.,12.0,0.,12.0
1989-08-26T21:16:18.120 ,4,0,0.,12.0,0.,12.0,0.,12.0,0.,12.0
1989-08-26T21:16:30.120 ,4,0,0.,12.0,0.,12.0,0.,12.0,0.,12.0
1989-08-26T21:16:42.120 ,4,0,0.,12.0,0.,12.0,0.,12.0,0.,12.0
1989-08-26T21:16:54.120 ,5,0,0.,12.0,0.,12.0,0.,12.0,0.,12.0
1989-08-26T21:17:06.120 ,5,0,0.,12.0,0.,12.0,0.,12.0,0.,12.0
1989-08-26T21:17:18.120 ,5,0,0.,12.0,0.,12.0,0.,12.0,0.,12.0
1989-08-26T21:17:30.120 ,5,0,0.,12.0,0.,12.0,0.,12.0,0.,12.0
1989-08-26T21:17:42.120 ,6,0,0.,12.0,0.,12.0,0.,12.0,0.,12.0
1989-08-26T21:17:54.120 ,6,0,0.,12.0,0.,12.0,0.,12.0,0.,12.0
1989-08-26T21:18:06.120 ,6,0,0.,12.0,0.,12.0,0.,12.0,0.,12.0
1989-08-26T21:18:18.120 ,6,0,0.,12.0,0.,12.0,0.,12.0,0.,12.0
1989-08-26T21:18:30.120 ,7,0,0.,12.0,0.,12.0,0.,12.0,0.,12.0
1989-08-26T21:18:42.120 ,7,0,0.,12.0,0.,12.0,0.,12.0,0.,12.0
1989-08-26T21:18:54.120 ,7,0,0.,12.0,0.,12.0,0.,12.0,0.,12.0
1989-08-26T21:19:06.120 ,7,0,0.,12.0,0.,12.0,0.,12.0,0.,12.0
1989-08-26T21:19:18.120 ,7,0,0.,12.0,0.,12.0,0.,12.0,0.,12.0
1989-08-26T21:19:30.120 ,7,0,0.,12.0,0.,12.0,0.,12.0,0.,12.0
1989-08-26T21:19:42.120 ,7,0,0.,12.0,0.,12.0,0.,12.0,0.,12.0
1989-08-26T21:19:54.120 ,7,0,0.,12.0,0.,12.0,0.,12.0,0.,12.0
1989-08-26T21:20:06.120 ,6,0,0.,12.0,0.,12.0,0.,12.0,0.,12.0
1989-08-26T21:20:18.120 ,6,0,0.,12.0,0.,12.0,0.,12.0,0.,12.0
1989-08-26T21:20:30.120 ,6,0,0.,12.0,0.,12.0,0.,12.0,0.,12.0
1989-08-26T21:20:42.120 ,6,0,0.,12.0,0.,12.0,0.,12.0,0.,12.0
1989-08-26T21:20:54.120 ,5,0,0.,12.0,0.,12.0,0.,12.0,0.,12.0
1989-08-26T21:21:06.120 ,5,0,0.,12.0,0.,12.0,0.,12.0,0.,12.0
1989-08-26T21:21:18.120 ,5,0,0.,12.0,0.,12.0,0.,12.0,0.,12.0
1989-08-26T21:21:30.120 ,5,0,0.,12.0,0.,12.0,0.,12.0,0.,12.0
1989-08-26T21:21:42.120 ,4,0,0.,12.0,0.,12.0,0.,12.0,0.,12.0
1989-08-26T21:21:54.120 ,4,0,0.,12.0,0.,12.0,0.,12.0,0.,12.0
1989-08-26T21:22:06.120 ,4,0,0.,12.0,0.,12.0,0.,12.0,0.,12.0
1989-08-26T21:22:18.120 ,4,0,0.,12.0,0.,12.0,0.,12.0,0.,12.0
1989-08-26T21:22:30.120 ,0,0,,0,,0,,0,,0
1989-08-26T21:22:42.120 ,0,0,,0,,0,,0,,0
1989-08-26T21:22:54.120 ,0,0,,0,,0,,0,,0
1989-08-26T21:23:06.120 ,0,0,,0,,0,,0,,0
1989-08-26T21:24:04.920 ,0,0,,0,,0,,0,,0
1989-08-26T21:24:16.920 ,0,0,,0,,0,,0,,0
1989-08-26T21:24:06.120 ,0,0,0.,12.0,0.,12.0,0.,12.0,0.,12.0
1989-08-26T21:24:18.120 ,0,0,0.,12.0,0.,12.0,0.,12.0,0.,12.0
1989-08-26T21:24:30.120 ,0,0,0.,12.0,0.,12.0,0.,12.0,0.,12.0
1989-08-26T21:24:42.120 ,0,0,0.,12.0,0.,12.0,0.,12.0,0.,12.0
1989-08-26T21:24:54.120 ,0,0,0.,12.0,0.,12.0,0.,12.0,0.,12.0
1989-08-26T21:25:06.120 ,0,0,0.,12.0,0.,12.0,0.,12.0,0.,12.0
1989-08-26T21:25:18.120 ,0,0,0.,12.0,0.,12.0,0.,12.0,0.,12.0
1989-08-26T21:25:30.120 ,0,0,0.,12.0,0.,12.0,0.,12.0,0.,12.0
1989-08-26T21:25:42.120 ,0,0,0.,12.0,0.,12.0,0.,12.0,0.,12.0
1989-08-26T21:25:54.120 ,0,0,0.,12.0,0.,12.0,0.,12.0,0.,12.0
1989-08-26T21:26:06.120 ,0,0,0.,12.0,0.,12.0,0.,12.0,0.,12.0
1989-08-26T21:26:18.120 ,0,0,0.,12.0,0.,12.0,0.,12.0,0.,12.0
1989-08-26T21:26:30.120 ,1,0,0.,12.0,0.,12.0,0.,12.0,0.,12.0
1989-08-26T21:26:42.120 ,1,0,0.,12.0,0.,12.0,0.,12.0,0.,12.0
1989-08-26T21:26:54.120 ,1,0,0.,12.0,0.,12.0,0.,12.0,0.,12.0
1989-08-26T21:27:06.120 ,1,0,0.,12.0,0.,12.0,0.,12.0,0.,12.0
1989-08-26T21:27:18.120 ,2,0,0.,12.0,0.,12.0,0.,12.0,0.,12.0
1989-08-26T21:27:30.120 ,2,0,0.,12.0,0.,12.0,0.,12.0,0.,12.0
1989-08-26T21:27:42.120 ,2,0,0.,12.0,0.,12.0,0.,12.0,0.,12.0
1989-08-26T21:27:54.120 ,2,0,0.,12.0,0.,12.0,0.,12.0,0.,12.0
1989-08-26T21:28:06.120 ,3,0,0.,12.0,0.,12.0,0.,12.0,0.,12.0
1989-08-26T21:28:18.120 ,3,0,0.,12.0,0.,12.0,0.,12.0,0.,12.0
1989-08-26T21:28:30.120 ,3,0,0.,12.0,0.,12.0,0.,12.0,0.,12.0
1989-08-26T21:28:42.120 ,3,0,0.,12.0,0.,12.0,0.,12.0,0.,12.0
1989-08-26T21:28:54.120 ,4,0,0.,12.0,0.,12.0,0.,12.0,0.,12.0
1989-08-26T21:29:06.120 ,4,0,0.,12.0,0.,12.0,0.,12.0,0.,12.0
1989-08-26T21:29:18.120 ,4,0,0.,12.0,0.,12.0,0.,12.0,0.,12.0
1989-08-26T21:29:30.120 ,4,0,0.,12.0,0.,12.0,0.,12.0,0.,12.0
1989-08-26T21:29:42.120 ,5,0,0.,12.0,0.,12.0,0.,12.0,0.,12.0
1989-08-26T21:29:54.120 ,5,0,0.,12.0,0.,12.0,0.,12.0,0.,12.0
1989-08-26T21:30:06.120 ,5,0,0.,12.0,0.,12.0,0.,12.0,0.,12.0
1989-08-26T21:30:18.120 ,5,0,0.,12.0,0.,12.0,0.,12.0,0.,12.0
1989-08-26T21:30:30.120 ,6,0,0.,12.0,0.,12.0,0.,12.0,0.,12.0
1989-08-26T21:30:42.120 ,6,0,0.,12.0,0.,12.0,0.,12.0,0.,12.0
1989-08-26T21:30:54.120 ,6,0,0.,12.0,0.,12.0,0.,12.0,0.,12.0
1989-08-26T21:31:06.120 ,6,0,0.,12.0,0.,12.0,0.,12.0,0.,12.0
1989-08-26T21:31:18.120 ,7,0,0.,12.0,0.,12.0,0.,12.0,0.,12.0
1989-08-26T21:31:30.120 ,7,0,0.,12.0,0.,12.0,0.,12.0,0.,12.0
1989-08-26T21:31:42.120 ,7,0,0.,12.0,0.,12.0,0.,12.0,0.,12.0
1989-08-26T21:31:54.120 ,7,0,0.,12.0,0.,12.0,0.,12.0,0.,12.0
1989-08-26T21:32:06.120 ,7,0,0.,12.0,0.,12.0,0.,12.0,0.,12.0
1989-08-26T21:32:18.120 ,7,0,0.,12.0,0.,12.0,0.,12.0,0.,12.0
1989-08-26T21:32:30.120 ,7,0,0.,12.0,0.,12.0,0.,12.0,0.,12.0
1989-08-26T21:32:42.120 ,7,0,0.,12.0,0.,12.0,0.,12.0,0.,12.0
1989-08-26T21:32:54.120 ,6,0,0.,12.0,0.,12.0,0.,12.0,0.,12.0
1989-08-26T21:33:06.120 ,6,0,0.,12.0,0.,12.0,0.,12.0,0.,12.0
1989-08-26T21:33:18.120 ,6,0,0.,12.0,0.,12.0,0.,12.0,0.,12.0
1989-08-26T21:33:30.120 ,6,0,0.,12.0,0.,12.0,0.,12.0,0.,12.0
1989-08-26T21:33:42.120 ,5,0,0.,12.0,0.,12.0,0.,12.0,0.,12.0
1989-08-26T21:33:54.120 ,5,0,0.,12.0,0.,12.0,0.,12.0,0.,12.0
1989-08-26T21:34:06.120 ,5,0,0.,12.0,0.,12.0,0.,12.0,0.,12.0
1989-08-26T21:34:18.120 ,5,0,0.,12.0,0.,12.0,0.,12.0,0.,12.0
1989-08-26T21:34:30.120 ,4,0,0.,12.0,0.,12.0,0.,12.0,0.,12.0
1989-08-26T21:34:42.120 ,4,0,0.,12.0,0.,12.0,0.,12.0,0.,12.0
1989-08-26T21:34:54.120 ,4,0,0.,12.0,0.,12.0,0.,12.0,0.,12.0
1989-08-26T21:35:06.120 ,4,0,0.,12.0,0.,12.0,0.,12.0,0.,12.0
1989-08-26T21:35:18.120 ,3,0,0.,12.0,0.,12.0,0.,12.0,0.,12.0
1989-08-26T21:35:30.120 ,3,0,0.,12.0,0.,12.0,0.,12.0,0.,12.0
1989-08-26T21:35:42.120 ,3,0,0.,12.0,0.,12.0,0.,12.0,0.,12.0
1989-08-26T21:35:54.120 ,3,0,0.,12.0,0.,12.0,0.,12.0,0.,12.0
1989-08-26T21:36:06.120 ,2,0,0.,12.0,0.,12.0,0.,12.0,0.,12.0
1989-08-26T21:36:18.120 ,2,0,0.,12.0,0.,12.0,0.,12.0,0.,12.0
1989-08-26T21:36:30.120 ,2,0,0.,12.0,0.,12.0,0.,12.0,0.,12.0
1989-08-26T21:36:42.120 ,2,0,0.,12.0,0.,12.0,0.,12.0,0.,12.0
1989-08-26T21:36:54.120 ,1,0,0.,12.0,0.,12.0,0.,12.0,0.,12.0
1989-08-26T21:37:06.120 ,1,0,0.,12.0,0.,12.0,0.,12.0,0.,12.0
1989-08-26T21:37:18.120 ,1,0,0.,12.0,0.,12.0,0.,12.0,0.,12.0
1989-08-26T21:37:30.120 ,1,0,0.,12.0,0.,12.0,0.,12.0,0.,12.0
1989-08-26T21:37:42.120 ,0,0,0.,12.0,0.,12.0,0.,12.0,0.,12.0
1989-08-26T21:37:54.120 ,0,0,0.,12.0,0.,12.0,0.,12.0,0.,12.0
1989-08-26T21:38:06.120 ,0,0,0.,12.0,0.,12.0,0.,12.0,0.,12.0
1989-08-26T21:38:18.120 ,0,0,0.,12.0,0.,12.0,0.,12.0,0.,12.0
1989-08-26T21:38:30.120 ,0,0,0.,12.0,0.,12.0,0.,12.0,0.,12.0
1989-08-26T21:38:42.120 ,0,0,0.,12.0,0.,12.0,0.,12.0,0.,12.0
1989-08-26T21:38:54.120 ,0,0,0.,12.0,0.,12.0,0.,12.0,0.,12.0
1989-08-26T21:39:06.120 ,0,0,0.,12.0,0.,12.0,0.,12.0,0.,12.0
1989-08-26T21:39:18.120 ,1,0,0.,12.0,0.,12.0,0.,12.0,0.,12.0
1989-08-26T21:39:30.120 ,1,0,0.,12.0,0.,12.0,0.,12.0,0.,12.0
1989-08-26T21:39:42.120 ,1,0,0.,12.0,0.,12.0,0.,12.0,0.,12.0
1989-08-26T21:39:54.120 ,1,0,0.,12.0,0.,12.0,0.,12.0,0.,12.0
1989-08-26T21:40:06.120 ,2,0,0.,12.0,0.,12.0,0.,12.0,0.,12.0
1989-08-26T21:40:18.120 ,2,0,0.,12.0,0.,12.0,0.,12.0,0.,12.0
1989-08-26T21:40:30.120 ,2,0,0.,12.0,0.,12.0,0.,12.0,0.,12.0
1989-08-26T21:40:42.120 ,2,0,0.,12.0,0.,12.0,0.,12.0,0.,12.0
1989-08-26T21:40:54.120 ,3,0,0.,12.0,0.,12.0,0.,12.0,0.,12.0
1989-08-26T21:41:06.120 ,3,0,0.,12.0,0.,12.0,0.,12.0,0.,12.0
1989-08-26T21:41:18.120 ,3,0,0.,12.0,0.,12.0,0.,12.0,0.,12.0
1989-08-26T21:41:30.120 ,3,0,0.,12.0,0.,12.0,0.,12.0,0.,12.0
1989-08-26T21:41:42.120 ,4,0,0.,12.0,0.,12.0,0.,12.0,0.,12.0
1989-08-26T21:41:54.120 ,4,0,0.,12.0,0.,12.0,0.,12.0,0.,12.0
1989-08-26T21:42:06.120 ,4,0,0.,12.0,0.,12.0,0.,12.0,0.,12.0
1989-08-26T21:42:18.120 ,4,0,0.,12.0,0.,12.0,0.,12.0,0.,12.0
1989-08-26T21:42:30.120 ,5,0,0.,12.0,0.,12.0,0.,12.0,0.,12.0
1989-08-26T21:42:42.120 ,5,0,0.,12.0,0.,12.0,0.,12.0,0.,12.0
1989-08-26T21:42:54.120 ,5,0,0.,12.0,0.,12.0,0.,12.0,0.,12.0
1989-08-26T21:43:06.120 ,5,0,0.,12.0,0.,12.0,0.,12.0,0.,12.0
1989-08-26T21:43:18.120 ,6,0,0.,12.0,0.,12.0,0.,12.0,0.,12.0
1989-08-26T21:43:30.120 ,6,0,0.,12.0,0.,12.0,0.,12.0,0.,12.0
1989-08-26T21:43:42.120 ,6,0,0.,12.0,0.,12.0,0.,12.0,0.,12.0
1989-08-26T21:43:54.120 ,6,0,0.,12.0,0.,12.0,0.,12.0,0.,12.0
1989-08-26T21:44:06.120 ,7,0,0.,12.0,0.,12.0,0.,12.0,0.,12.0
1989-08-26T21:44:18.120 ,7,0,0.,12.0,0.,12.0,0.,12.0,0.,12.0
1989-08-26T21:44:30.120 ,7,0,0.,12.0,0.,12.0,0.,12.0,0.,12.0
1989-08-26T21:44:42.120 ,7,0,0.,12.0,0.,12.0,0.,12.0,0.,12.0
1989-08-26T21:44:54.120 ,7,0,0.,12.0,0.,12.0,0.,12.0,0.,12.0
1989-08-26T21:45:06.120 ,7,0,0.,12.0,0.,12.0,0.,12.0,0.,12.0
1989-08-26T21:45:18.120 ,7,0,0.,12.0,0.,12.0,0.,12.0,0.,12.0
1989-08-26T21:45:30.120 ,7,0,0.,12.0,0.,12.0,0.,12.0,0.,12.0
1989-08-26T21:45:42.120 ,6,0,0.,12.0,0.,12.0,0.,12.0,0.,12.0
1989-08-26T21:45:54.120 ,6,0,0.,12.0,0.,12.0,0.,12.0,0.,12.0
1989-08-26T21:46:06.120 ,6,0,0.,12.0,0.,12.0,0.,12.0,0.,12.0
1989-08-26T21:46:18.120 ,6,0,0.,12.0,0.,12.0,0.,12.0,0.,12.0
1989-08-26T21:46:30.120 ,5,0,0.,12.0,0.,12.0,0.,12.0,0.,12.0
1989-08-26T21:46:42.120 ,5,0,0.,12.0,0.,12.0,0.,12.0,0.,12.0
1989-08-26T21:46:54.120 ,5,0,0.,12.0,0.,12.0,0.,12.0,0.,12.0
1989-08-26T21:47:06.120 ,5,0,0.,12.0,0.,12.0,0.,12.0,0.,12.0
1989-08-26T21:47:18.120 ,4,0,0.,12.0,0.,12.0,0.,12.0,0.,12.0
1989-08-26T21:47:30.120 ,4,0,0.,12.0,0.,12.0,0.,12.0,0.,12.0
1989-08-26T21:47:42.120 ,4,0,0.,12.0,0.,12.0,0.,12.0,0.,12.0
1989-08-26T21:47:54.120 ,4,0,0.,12.0,0.,12.0,0.,12.0,0.,12.0
1989-08-26T21:48:06.120 ,3,0,0.,12.0,0.,12.0,0.,12.0,0.,12.0
1989-08-26T21:48:18.120 ,3,0,0.,12.0,0.,12.0,0.,12.0,0.,12.0
1989-08-26T21:48:30.120 ,3,0,0.,12.0,0.,12.0,0.,12.0,0.,12.0
1989-08-26T21:48:42.120 ,3,0,0.,12.0,0.,12.0,0.,12.0,0.,12.0
1989-08-26T21:48:54.120 ,2,0,0.,12.0,0.,12.0,0.,12.0,0.,12.0
1989-08-26T21:49:06.120 ,2,0,0.,12.0,0.,12.0,0.,12.0,0.,12.0
1989-08-26T21:49:18.120 ,2,0,0.,12.0,0.,12.0,0.,12.0,0.,12.0
1989-08-26T21:49:30.120 ,2,0,0.,12.0,0.,12.0,0.,12.0,0.,12.0
1989-08-26T21:49:42.120 ,1,0,0.,12.0,0.,12.0,0.,12.0,0.,12.0
1989-08-26T21:49:54.120 ,1,0,0.,12.0,0.,12.0,0.,12.0,0.,12.0
1989-08-26T21:50:06.120 ,1,0,0.,12.0,0.,12.0,0.,12.0,0.,12.0
1989-08-26T21:50:18.120 ,1,0,0.,12.0,0.,12.0,0.,12.0,0.,12.0
1989-08-26T21:50:30.120 ,0,0,0.,12.0,0.,12.0,0.,12.0,0.,12.0
1989-08-26T21:50:42.120 ,0,0,0.,12.0,0.,12.0,0.,12.0,0.,12.0
1989-08-26T21:50:54.120 ,0,0,0.,12.0,0.,12.0,0.,12.0,0.,12.0
1989-08-26T21:51:06.120 ,0,0,0.,12.0,0.,12.0,0.,12.0,0.,12.0
1989-08-26T21:51:18.120 ,0,0,0.,12.0,0.,12.0,0.,12.0,0.,12.0
1989-08-26T21:51:30.120 ,0,0,0.,12.0,0.,12.0,0.,12.0,0.,12.0
1989-08-26T21:51:42.120 ,0,0,0.,12.0,0.,12.0,0.,12.0,0.,12.0
1989-08-26T21:51:54.120 ,0,0,0.,12.0,0.,12.0,0.,12.0,0.,12.0
1989-08-26T21:52:06.120 ,1,0,0.,12.0,0.,12.0,0.,12.0,0.,12.0
1989-08-26T21:52:18.120 ,1,0,0.,12.0,0.,12.0,0.,12.0,0.,12.0
1989-08-26T21:52:30.120 ,1,0,0.,12.0,0.,12.0,0.,12.0,0.,12.0
1989-08-26T21:52:42.120 ,1,0,0.,12.0,0.,12.0,0.,12.0,0.,12.0
1989-08-26T21:52:54.120 ,2,0,0.,12.0,0.,12.0,0.,12.0,0.,12.0
1989-08-26T21:53:06.120 ,2,0,0.,12.0,0.,12.0,0.,12.0,0.,12.0
1989-08-26T21:53:18.120 ,2,0,0.,12.0,0.,12.0,0.,12.0,0.,12.0
1989-08-26T21:53:30.120 ,2,0,0.,12.0,0.,12.0,0.,12.0,0.,12.0
1989-08-26T21:53:42.120 ,3,0,0.,12.0,0.,12.0,0.,12.0,0.,12.0
1989-08-26T21:53:54.120 ,3,0,0.,12.0,0.,12.0,0.,12.0,0.,12.0
1989-08-26T21:54:06.120 ,3,0,0.,12.0,0.,12.0,0.,12.0,0.,12.0
1989-08-26T21:54:18.120 ,3,0,0.,12.0,0.,12.0,0.,12.0,0.,12.0
1989-08-26T21:54:30.120 ,4,0,0.,12.0,0.,12.0,0.,12.0,0.,12.0
1989-08-26T21:54:42.120 ,4,0,0.,12.0,0.,12.0,0.,12.0,0.,12.0
1989-08-26T21:54:54.120 ,4,0,0.,12.0,0.,12.0,0.,12.0,0.,12.0
1989-08-26T21:55:06.120 ,4,0,0.,12.0,0.,12.0,0.,12.0,0.,12.0
1989-08-26T21:55:18.120 ,5,0,0.,12.0,0.,12.0,0.,12.0,0.,12.0
1989-08-26T21:55:30.120 ,5,0,0.,12.0,0.,12.0,0.,12.0,0.,12.0
1989-08-26T21:55:42.120 ,5,0,0.,12.0,0.,12.0,0.,12.0,0.,12.0
1989-08-26T21:55:54.120 ,5,0,0.,12.0,0.,12.0,0.,12.0,0.,12.0
1989-08-26T21:56:06.120 ,6,0,0.,12.0,0.,12.0,0.,12.0,0.,12.0
1989-08-26T21:56:18.120 ,6,0,0.,12.0,0.,12.0,0.,12.0,0.,12.0
1989-08-26T21:56:30.120 ,6,0,0.,12.0,0.,12.0,0.,12.0,0.,12.0
1989-08-26T21:56:42.120 ,6,0,0.,12.0,0.,12.0,0.,12.0,0.,12.0
1989-08-26T21:56:54.120 ,7,0,0.,12.0,0.,12.0,0.,12.0,0.,12.0
1989-08-26T21:57:06.120 ,7,0,0.,12.0,0.,12.0,0.,12.0,0.,12.0
1989-08-26T21:57:18.120 ,7,0,0.,12.0,0.,12.0,0.,12.0,0.,12.0
1989-08-26T21:57:30.120 ,7,0,0.,12.0,0.,12.0,0.,12.0,0.,12.0
1989-08-26T21:57:42.120 ,7,0,0.,12.0,0.,12.0,0.,12.0,0.,12.0
1989-08-26T21:57:54.120 ,7,0,0.,12.0,0.,12.0,0.,12.0,0.,12.0
1989-08-26T21:58:06.120 ,7,0,0.,12.0,0.,12.0,0.,12.0,0.,12.0
1989-08-26T21:58:18.120 ,7,0,0.,12.0,0.,12.0,0.,12.0,0.,12.0
1989-08-26T21:58:30.120 ,6,0,0.,12.0,0.,12.0,0.,12.0,0.,12.0
1989-08-26T21:58:42.120 ,6,0,0.,12.0,0.,12.0,0.,12.0,0.,12.0
1989-08-26T21:58:54.120 ,6,0,0.,12.0,0.,12.0,0.,12.0,0.,12.0
1989-08-26T21:59:06.120 ,6,0,0.,12.0,0.,12.0,0.,12.0,0.,12.0
1989-08-26T21:59:18.120 ,5,0,0.,12.0,0.,12.0,0.,12.0,0.,12.0
1989-08-26T21:59:30.120 ,5,0,0.,12.0,0.,12.0,0.,12.0,0.,12.0
1989-08-26T21:59:42.120 ,5,0,0.,12.0,0.,12.0,0.,12.0,0.,12.0
1989-08-26T21:59:54.120 ,5,0,0.,12.0,0.,12.0,0.,12.0,0.,12.0
1989-08-26T22:00:06.120 ,4,0,0.,12.0,0.,12.0,0.,12.0,0.,12.0
1989-08-26T22:00:18.120 ,4,0,0.,12.0,0.,12.0,0.,12.0,0.,12.0
1989-08-26T22:00:30.120 ,4,0,0.,12.0,0.,12.0,0.,12.0,0.,12.0
1989-08-26T22:00:42.120 ,4,0,0.,12.0,0.,12.0,0.,12.0,0.,12.0
1989-08-26T22:00:54.120 ,3,0,0.,12.0,0.,12.0,0.,12.0,0.,12.0
1989-08-26T22:01:06.120 ,3,0,0.,12.0,0.,12.0,0.,12.0,0.,12.0
1989-08-26T22:01:18.120 ,3,0,0.,12.0,0.,12.0,0.,12.0,0.,12.0
1989-08-26T22:01:30.120 ,3,0,0.,12.0,0.,12.0,0.,12.0,0.,12.0
1989-08-26T22:01:42.120 ,2,0,0.,12.0,0.,12.0,0.,12.0,0.,12.0
1989-08-26T22:01:54.120 ,2,0,0.,12.0,0.,12.0,0.,12.0,0.,12.0
1989-08-26T22:02:06.120 ,2,0,0.,12.0,0.,12.0,0.,12.0,0.,12.0
1989-08-26T22:02:18.120 ,2,0,0.,12.0,0.,12.0,0.,12.0,0.,12.0
1989-08-26T22:02:30.120 ,1,0,0.,12.0,0.,12.0,0.,12.0,0.,12.0
1989-08-26T22:02:42.120 ,1,0,0.,12.0,0.,12.0,0.,12.0,0.,12.0
1989-08-26T22:02:54.120 ,1,0,0.,12.0,0.,12.0,0.,12.0,0.,12.0
1989-08-26T22:03:06.120 ,1,0,0.,12.0,0.,12.0,0.,12.0,0.,12.0
1989-08-26T22:03:18.120 ,0,0,0.,12.0,0.,12.0,0.,12.0,0.,12.0
1989-08-26T22:03:30.120 ,0,0,0.,12.0,0.,12.0,0.,12.0,0.,12.0
1989-08-26T22:03:42.120 ,0,0,0.,12.0,0.,12.0,0.,12.0,0.,12.0
1989-08-26T22:03:54.120 ,0,0,0.,12.0,0.,12.0,0.,12.0,0.,12.0
1989-08-26T22:04:06.120 ,0,0,0.,12.0,0.,12.0,0.,12.0,0.,12.0
1989-08-26T22:04:18.120 ,0,0,0.,12.0,0.,12.0,0.,12.0,0.,12.0
1989-08-26T22:04:30.110 ,0,0,0.,12.0,0.,12.0,0.,12.0,0.,12.0
1989-08-26T22:04:42.110 ,0,0,0.,12.0,0.,12.0,0.,12.0,0.,12.0
1989-08-26T22:04:54.110 ,1,0,0.,12.0,0.,12.0,0.,12.0,0.,12.0
1989-08-26T22:05:06.110 ,1,0,0.,12.0,0.,12.0,0.,12.0,0.,12.0
1989-08-26T22:05:18.110 ,1,0,0.,12.0,0.,12.0,0.,12.0,0.,12.0
1989-08-26T22:05:30.110 ,1,0,0.,12.0,0.,12.0,0.,12.0,0.,12.0
1989-08-26T22:05:42.110 ,2,0,0.,12.0,0.,12.0,0.,12.0,0.,12.0
1989-08-26T22:05:54.110 ,2,0,0.,12.0,0.,12.0,0.,12.0,0.,12.0
1989-08-26T22:06:06.110 ,2,0,0.,12.0,0.,12.0,0.,12.0,0.,12.0
1989-08-26T22:06:18.110 ,2,0,0.,12.0,0.,12.0,0.,12.0,0.,12.0
1989-08-26T22:06:30.110 ,3,0,0.,12.0,0.,12.0,0.,12.0,0.,12.0
1989-08-26T22:06:42.110 ,3,0,0.,12.0,0.,12.0,0.,12.0,0.,12.0
1989-08-26T22:06:54.110 ,3,0,0.,12.0,0.,12.0,0.,12.0,0.,12.0
1989-08-26T22:07:06.110 ,3,0,0.,12.0,0.,12.0,0.,12.0,0.,12.0
1989-08-26T22:07:18.110 ,4,0,0.,12.0,0.,12.0,0.,12.0,0.,12.0
1989-08-26T22:07:30.110 ,4,0,0.,12.0,0.,12.0,0.,12.0,0.,12.0
1989-08-26T22:07:42.110 ,4,0,0.,12.0,0.,12.0,0.,12.0,0.,12.0
1989-08-26T22:07:54.110 ,4,0,0.,12.0,0.,12.0,0.,12.0,0.,12.0
1989-08-26T22:08:06.110 ,5,0,0.,12.0,0.,12.0,0.,12.0,0.,12.0
1989-08-26T22:08:18.110 ,5,0,0.,12.0,0.,12.0,0.,12.0,0.,12.0
1989-08-26T22:08:30.110 ,5,0,0.,12.0,0.,12.0,0.,12.0,0.,12.0
1989-08-26T22:08:42.110 ,5,0,0.,12.0,0.,12.0,0.,12.0,0.,12.0
1989-08-26T22:08:54.110 ,6,0,0.,12.0,0.,12.0,0.,12.0,0.,12.0
1989-08-26T22:09:06.110 ,6,0,0.,12.0,0.,12.0,0.,12.0,0.,12.0
1989-08-26T22:09:18.110 ,6,0,0.,12.0,0.,12.0,0.,12.0,0.,12.0
1989-08-26T22:09:30.110 ,6,0,0.,12.0,0.,12.0,0.,12.0,0.,12.0
1989-08-26T22:09:42.110 ,7,0,0.,12.0,0.,12.0,0.,12.0,0.,12.0
1989-08-26T22:09:54.110 ,7,0,0.,12.0,0.,12.0,0.,12.0,0.,12.0
1989-08-26T22:10:06.110 ,7,0,0.,12.0,0.,12.0,0.,12.0,0.,12.0
1989-08-26T22:10:18.110 ,7,0,0.,12.0,0.,12.0,0.,12.0,0.,12.0
1989-08-26T22:10:30.110 ,7,0,0.,12.0,0.,12.0,0.,12.0,0.,12.0
1989-08-26T22:10:42.110 ,7,0,0.,12.0,0.,12.0,0.,12.0,0.,12.0
1989-08-26T22:10:54.110 ,7,0,0.,12.0,0.,12.0,0.,12.0,0.,12.0
1989-08-26T22:11:06.110 ,7,0,0.,12.0,0.,12.0,0.,12.0,0.,12.0
1989-08-26T22:11:18.110 ,6,0,0.,12.0,0.,12.0,0.,12.0,0.,12.0
1989-08-26T22:11:30.110 ,6,0,0.,12.0,0.,12.0,0.,12.0,0.,12.0
1989-08-26T22:11:42.110 ,6,0,0.,12.0,0.,12.0,0.,12.0,0.,12.0
1989-08-26T22:11:54.110 ,6,0,0.,12.0,0.,12.0,0.,12.0,0.,12.0
1989-08-26T22:12:06.110 ,5,0,0.,12.0,0.,12.0,0.,12.0,0.,12.0
1989-08-26T22:12:18.110 ,5,0,0.,12.0,0.,12.0,0.,12.0,0.,12.0
1989-08-26T22:12:30.110 ,5,0,0.,12.0,0.,12.0,0.,12.0,0.,12.0
1989-08-26T22:12:42.110 ,5,0,0.,12.0,0.,12.0,0.,12.0,0.,12.0
1989-08-26T22:12:54.110 ,4,0,0.,12.0,0.,12.0,0.,12.0,0.,12.0
1989-08-26T22:13:06.110 ,4,0,0.,12.0,0.,12.0,0.,12.0,0.,12.0
1989-08-26T22:13:18.110 ,4,0,0.,12.0,0.,12.0,0.,12.0,0.,12.0
1989-08-26T22:13:30.110 ,4,0,0.,12.0,0.,12.0,0.,12.0,0.,12.0
1989-08-26T22:13:42.110 ,3,0,0.,12.0,0.,12.0,0.,12.0,0.,12.0
1989-08-26T22:13:54.110 ,3,0,0.,12.0,0.,12.0,0.,12.0,0.,12.0
1989-08-26T22:14:06.110 ,3,0,0.,12.0,0.,12.0,0.,12.0,0.,12.0
1989-08-26T22:14:18.110 ,3,0,0.,12.0,0.,12.0,0.,12.0,0.,12.0
1989-08-26T22:14:30.110 ,2,0,0.,12.0,0.,12.0,0.,12.0,0.,12.0
1989-08-26T22:14:42.110 ,2,0,0.,12.0,0.,12.0,0.,12.0,0.,12.0
1989-08-26T22:14:54.110 ,2,0,0.,12.0,0.,12.0,0.,12.0,0.,12.0
1989-08-26T22:15:06.110 ,2,0,0.,12.0,0.,12.0,0.,12.0,0.,12.0
1989-08-26T22:15:18.110 ,1,0,0.,12.0,0.,12.0,0.,12.0,0.,12.0
1989-08-26T22:15:30.110 ,1,0,0.,12.0,0.,12.0,0.,12.0,0.,12.0
1989-08-26T22:15:42.110 ,1,0,0.,12.0,0.,12.0,0.,12.0,0.,12.0
1989-08-26T22:15:54.110 ,1,0,0.,12.0,0.,12.0,0.,12.0,0.,12.0
1989-08-26T22:16:06.110 ,0,0,0.,12.0,0.,12.0,0.,12.0,0.,12.0
1989-08-26T22:16:18.110 ,0,0,0.,12.0,0.,12.0,0.,12.0,0.,12.0
1989-08-26T22:16:30.110 ,0,0,0.,12.0,0.,12.0,0.,12.0,0.,12.0
1989-08-26T22:16:42.110 ,0,0,0.,12.0,0.,12.0,0.,12.0,0.,12.0
1989-08-26T22:16:54.110 ,0,0,0.,12.0,0.,12.0,0.,12.0,0.,12.0
1989-08-26T22:17:06.110 ,0,0,0.,12.0,0.,12.0,0.,12.0,0.,12.0
1989-08-26T22:17:18.110 ,0,0,0.,12.0,0.,12.0,0.,12.0,0.,12.0
1989-08-26T22:17:30.110 ,0,0,0.,12.0,0.,12.0,0.,12.0,0.,12.0
1989-08-26T22:17:42.110 ,1,0,0.,12.0,0.,12.0,0.,12.0,0.,12.0
1989-08-26T22:17:54.110 ,1,0,0.,12.0,0.,12.0,0.,12.0,0.,12.0
1989-08-26T22:18:06.110 ,1,0,0.,12.0,0.,12.0,0.,12.0,0.,12.0
1989-08-26T22:18:18.110 ,1,0,0.,12.0,0.,12.0,0.,12.0,0.,12.0